Probability
10 6 3 3 3 0 0 0 0 0 0 0 0 0 0 0 0 0 0 0 0 0 0 0 0 0 0 0 0 0 0 0 0 0 0 0 0 0 0 0 0 0 0
10 6 6 3 3 3 0 0 0 0 0 0 0 0 0 0 0 0 0 0 0 0 0 0 0 0 0 0 0 0 0 0 0 0 0 0 0 0 0 0 0 0 0
10 10 6 6 3 3 0 0 0 0 0 0 0 0 0 0 0 0 0 0 0 0 0 0 0 0 0 0 0 0 0 0 0 0 0 0 0 0 0 0 0 0 0
6 10 6 6 6 0 0 0 0 0 0 0 0 0 0 0 0 0 0 0 0 0 0 0 0 0 0 0 0 0 0 0 0 0 0 0 0 0 0 0 0 0 0
6 6 6 3 0 0 0 0 0 0 3 0 0 0 0 0 0 0 0 0 0 0 0 0 0 0 0 0 0 0 0 0 0 0 0 0 0 0 0 0 0 0 0
6 6 6 3 3 3 3 3 3 0 0 0 0 0 0 0 0 0 0 0 0 0 0 0 0 0 0 0 0 0 0 0 0 0 0 0 0 0 0 0 0 0 0
6 6 6 6 3 3 3 3 3 3 0 0 3 3 0 0 0 0 0 0 0 0 0 0 0 0 0 0 0 0 0 0 0 0 0 0 0 0 0 0 0 0 0
6 6 6 6 3 3 3 3 3 3 0 3 3 3 0 0 0 0 0 0 0 0 0 0 0 0 0 0 0 0 0 0 0 0 0 0 0 0 0 0 0 0 0
6 6 6 6 6 6 3 3 3 3 3 3 3 3 3 0 0 0 0 0 0 0 0 0 0 0 0 0 0 0 0 0 0 0 0 0 0 0 0 0 0 0 0
6 6 6 6 6 6 6 3 3 3 3 3 3 3 3 0 0 0 0 0 0 0 0 0 0 0 0 0 0 0 0 0 0 0 0 0 0 0 0 0 0 0 0
6 6 6 6 6 6 6 6 6 3 3 3 3 3 3 0 0 0 0 0 0 0 0 0 0 0 0 0 0 0 0 0 0 0 0 0 0 0 0 0 0 0 0
3 3 3 6 6 6 6 6 3 3 3 3 3 3 0 0 0 0 0 0 0 0 0 0 0 0 0 0 0 0 0 0 0 0 0 0 0 0 0 0 0 0 0
3 3 3 3 3 3 3 3 3 3 3 3 3 3 3 0 0 0 0 0 0 0 0 0 0 0 0 0 0 0 0 0 0 0 0 0 0 0 0 0 0 0 0
3 3 3 3 3 3 0 0 3 3 3 3 0 0 0 3 3 0 0 0 0 0 0 0 0 0 0 0 0 0 0 0 0 0 0 0 0 0 0 0 0 0 0
3 3 3 3 0 0 0 0 0 0 0 0 0 3 3 3 0 0 0 0 0 0 0 0 0 0 0 0 0 0 0 0 0 0 0 0 0 0 0 0 0 0 0
0 0 0 0 0 0 0 0 0 0 0 0 0 0 0 0 0 0 0 0 0 0 0 0 0 0 0 0 0 0 0 0 0 0 0 0 0 0 0 0 0 0 0
0 0 0 0 0 0 0 0 0 0 0 0 0 0 0 0 0 0 0 0 0 0 0 0 0 0 0 0 0 0 0 0 0 0 0 0 0 0 0 0 0 0 0
0 0 0 0 0 0 0 0 0 0 0 0 0 0 0 0 0 0 0 0 0 0 0 0 0 0 0 0 0 0 0 0 0 0 0 0 0 0 0 0 0 0 0
0 0 0 0 0 0 0 0 0 0 0 0 0 0 0 0 0 0 0 0 0 0 0 0 0 0 0 0 0 0 0 0 0 0 0 0 0 0 0 0 0 0 0
0 0 0 0 0 0 0 0 0 0 0 0 0 0 0 0 0 0 0 0 0 0 0 0 0 0 0 0 0 0 0 0 0 0 0 0 0 0 0 0 0 0 0
0 0 0 0 0 0 0 0 0 0 0 0 0 0 0 0 0 0 0 0 0 0 0 0 0 0 0 0 0 0 0 0 0 0 0 0 0 0 0 0 0 0 0
0 0 0 0 0 0 0 0 0 0 0 0 0 0 0 0 0 0 0 0 0 0 0 0 0 0 0 0 0 0 0 0 0 0 0 0 0 0 0 0 0 0 0
0 0 0 0 0 0 0 0 0 0 0 0 0 0 0 0 0 0 0 0 0 0 0 0 0 0 0 0 0 0 0 0 0 0 0 0 0 0 0 0 0 0 0
0 0 0 0 0 0 0 0 0 0 0 0 0 0 0 0 0 0 0 0 0 0 0 0 0 0 0 0 0 0 0 0 0 0 0 0 0 0 0 0 0 0 0
0 0 0 0 0 0 0 0 0 0 0 0 0 0 0 0 0 0 0 0 0 0 0 0 0 0 0 0 0 0 0 0 0 0 0 0 0 0 0 0 0 0 0
0 0 0 0 0 0 0 0 0 0 0 0 0 0 0 0 0 0 0 0 0 0 0 0 0 0 0 0 0 0 0 0 0 0 0 0 0 0 0 0 0 0 0
Height
5793 5793 5793 5794 5794 5794 5794 5794 5795 5796 5796 5797 5797 5797 5798 5799 5799 5799 5800 5800 5800 5800 5800 5800 5800 5800 5800 5799 5798 5798 5798 5797 5796 5796 5795 5794 5793 5793 5791 5790 5789 5788 5787
5786 5786 5787 5787 5787 5787 5787 5788 5788 5789 5789 5790 5790 5791 5791 5792 5792 5792 5793 5793 5793 5793 5794 5793 5793 5793 5793 5792 5792 5791 5791 5790 5790 5789 5788 5787 5787 5786 5785 5784 5783 5782 5781
5779 5780 5779 5779 5780 5780 5780 5781 5781 5782 5782 5783 5783 5784 5784 5784 5785 5785 5785 5786 5786 5786 5786 5786 5786 5786 5786 5785 5785 5784 5784 5783 5783 5782 5782 5781 5780 5779 5778 5777 5776 5775 5774
5772 5772 5772 5772 5773 5773 5773 5773 5774 5774 5775 5776 5776 5777 5777 5777 5777 5777 5778 5778 5778 5778 5778 5778 5778 5778 5778 5778 5777 5777 5776 5776 5775 5775 5774 5773 5773 5772 5771 5770 5769 5768 5768
5764 5764 5764 5765 5765 5765 5766 5766 5766 5767 5767 5768 5768 5769 5769 5769 5769 5769 5770 5770 5770 5770 5770 5770 5770 5770 5770 5770 5769 5769 5769 5768 5768 5767 5767 5766 5765 5764 5764 5763 5762 5761 5761
5756 5756 5757 5757 5757 5757 5757 5758 5758 5759 5759 5760 5760 5761 5761 5761 5761 5761 5761 5761 5761 5761 5761 5762 5761 5761 5761 5761 5761 5760 5760 5760 5760 5760 5759 5758 5758 5757 5756 5755 5754 5754 5753
5748 5748 5748 5749 5749 5749 5749 5749 5750 5750 5751 5751 5751 5751 5752 5752 5752 5752 5752 5752 5752 5752 5752 5753 5753 5753 5753 5752 5752 5752 5752 5751 5752 5751 5751 5751 5750 5749 5748 5747 5746 5746 5745
5739 5739 5739 5740 5740 5740 5740 5740 5740 5741 5741 5742 5742 5742 5743 5743 5743 5743 5743 5743 5743 5743 5743 5743 5744 5744 5744 5744 5743 5743 5743 5743 5743 5743 5743 5742 5741 5740 5740 5739 5738 5737 5737
5730 5730 5730 5730 5730 5730 5730 5731 5731 5732 5732 5733 5733 5733 5733 5734 5734 5734 5734 5734 5734 5734 5734 5734 5734 5734 5734 5734 5734 5734 5734 5734 5734 5734 5734 5733 5732 5731 5731 5731 5730 5730 5729
5721 5721 5720 5720 5720 5720 5720 5721 5721 5722 5722 5723 5723 5723 5724 5724 5724 5724 5724 5724 5725 5725 5724 5724 5724 5724 5724 5724 5724 5725 5725 5725 5725 5725 5724 5724 5723 5722 5722 5722 5721 5721 5721
5712 5711 5711 5710 5710 5710 5710 5710 5711 5712 5712 5713 5714 5714 5714 5714 5714 5714 5714 5714 5715 5715 5715 5714 5714 5714 5714 5714 5714 5715 5715 5715 5715 5715 5715 5714 5714 5713 5713 5712 5712 5712 5712
5703 5702 5702 5701 5701 5700 5700 5700 5701 5701 5702 5703 5703 5704 5704 5704 5704 5704 5704 5704 5704 5704 5704 5704 5704 5704 5703 5703 5704 5704 5704 5704 5705 5705 5705 5705 5704 5703 5703 5703 5702 5702 5702
5693 5693 5692 5692 5691 5690 5690 5691 5691 5691 5692 5692 5693 5693 5693 5693 5693 5693 5694 5694 5694 5693 5693 5693 5693 5693 5693 5693 5693 5693 5693 5694 5694 5695 5695 5695 5695 5694 5693 5693 5693 5693 5692
5684 5683 5682 5682 5681 5681 5680 5680 5681 5681 5681 5682 5682 5682 5683 5683 5683 5683 5683 5683 5683 5683 5683 5683 5683 5683 5683 5682 5682 5683 5683 5683 5684 5684 5684 5685 5685 5684 5684 5683 5683 5683 5683
5674 5673 5672 5671 5671 5671 5670 5670 5670 5671 5671 5671 5672 5672 5672 5673 5673 5673 5673 5673 5673 5673 5672 5672 5672 5672 5672 5672 5672 5672 5673 5673 5673 5674 5674 5674 5674 5674 5674 5673 5673 5673 5673
5664 5663 5662 5661 5661 5660 5660 5660 5660 5660 5660 5660 5661 5661 5661 5662 5662 5662 5662 5662 5662 5662 5662 5662 5662 5662 5662 5661 5661 5662 5662 5662 5663 5663 5663 5664 5664 5664 5664 5663 5663 5663 5663
5654 5653 5652 5651 5650 5650 5650 5650 5650 5650 5650 5650 5651 5651 5651 5651 5651 5651 5651 5651 5651 5651 5651 5651 5651 5651 5651 5651 5651 5651 5652 5652 5652 5653 5653 5653 5653 5653 5653 5653 5653 5653 5652
5644 5643 5642 5641 5640 5640 5640 5639 5639 5639 5640 5640 5640 5640 5641 5641 5641 5641 5640 5640 5641 5640 5640 5640 5640 5640 5640 5640 5641 5641 5641 5642 5641 5642 5642 5642 5642 5642 5642 5642 5642 5642 5642
5635 5634 5632 5631 5631 5630 5630 5630 5630 5629 5629 5630 5630 5630 5630 5630 5630 5630 5629 5629 5630 5630 5630 5629 5629 5629 5629 5630 5630 5630 5630 5630 5631 5631 5631 5631 5631 5631 5631 5631 5631 5631 5631
5626 5625 5624 5623 5622 5622 5621 5621 5621 5620 5620 5620 5620 5619 5619 5619 5619 5619 5619 5618 5619 5619 5619 5619 5619 5619 5619 5619 5619 5619 5619 5619 5619 5619 5619 5619 5620 5620 5620 5620 5620 5621 5621
5618 5617 5615 5614 5614 5613 5613 5612 5612 5611 5611 5610 5610 5609 5608 5608 5608 5608 5608 5608 5608 5609 5608 5608 5608 5608 5608 5608 5608 5608 5608 5608 5608 5608 5608 5608 5608 5608 5608 5609 5609 5609 5609
5611 5609 5608 5607 5606 5605 5604 5604 5603 5602 5601 5601 5600 5599 5598 5598 5598 5598 5598 5598 5598 5598 5598 5598 5598 5598 5598 5598 5597 5597 5597 5597 5596 5596 5597 5597 5597 5597 5597 5597 5597 5598 5598
5604 5602 5601 5600 5599 5598 5597 5596 5595 5594 5593 5592 5590 5589 5589 5588 5587 5587 5587 5587 5587 5587 5587 5587 5587 5587 5587 5587 5586 5586 5586 5586 5586 5585 5585 5585 5585 5585 5585 5586 5586 5586 5587
5598 5596 5594 5593 5591 5590 5589 5588 5587 5585 5584 5583 5581 5580 5579 5578 5577 5577 5576 5576 5576 5576 5576 5576 5575 5575 5576 5576 5575 5575 5575 5574 5574 5574 5574 5574 5573 5573 5573 5574 5574 5575 5575
5591 5590 5588 5586 5585 5583 5581 5580 5578 5577 5575 5574 5572 5571 5570 5569 5568 5567 5566 5566 5565 5565 5565 5564 5564 5564 5564 5564 5564 5564 5563 5563 5563 5563 5562 5562 5562 5562 5562 5562 5563 5563 5564
5584 5582 5581 5579 5577 5575 5573 5571 5570 5568 5566 5565 5563 5561 5560 5559 5558 5557 5556 5556 5555 5555 5554 5554 5553 5553 5553 5553 5553 5553 5552 5552 5552 5551 5551 5551 5551 5551 5551 5551 5551 5551 5552
Wind_Speed
25 24 24 24 24 24 24 24 24 24 25 25 24 24 24 24 24 24 24 24 24 24 23 23 23 24 24 24 24 24 23 22 22 22 22 22 21 22 22 22 21 21 21
26 25 25 25 25 25 25 25 25 25 25 25 25 25 25 25 25 25 25 25 25 25 25 25 25 25 25 25 25 25 24 24 24 23 23 23 23 22 22 22 22 22 22
26 25 25 25 26 26 25 25 25 25 25 25 25 25 25 26 26 26 26 26 26 26 26 26 26 26 26 26 26 26 25 25 24 24 24 24 24 23 23 23 23 23 22
26 26 27 26 26 26 26 26 26 26 26 26 27 27 26 27 27 28 28 28 28 28 28 28 28 27 27 27 26 26 26 26 25 24 24 24 24 24 24 24 24 23 22
27 27 27 27 27 27 27 27 27 27 27 28 28 28 29 28 28 29 29 29 29 29 29 29 29 28 27 27 27 27 26 26 26 26 25 25 25 25 25 25 24 24 23
27 28 28 28 28 29 29 29 30 30 30 29 30 29 29 30 29 29 29 30 29 29 28 28 28 28 28 28 28 27 26 26 27 26 26 26 25 25 25 24 24 24 24
28 28 29 30 30 31 31 31 31 32 32 32 31 31 31 30 31 31 30 30 29 29 29 29 29 29 29 29 28 27 27 27 27 27 27 26 26 26 25 25 25 25 25
29 30 30 31 32 32 32 32 32 32 32 32 32 31 31 30 30 30 31 30 30 30 30 30 30 29 29 29 29 29 29 28 28 28 27 27 27 27 26 26 27 27 26
31 30 31 31 32 33 33 33 33 33 33 32 32 32 31 31 31 31 31 31 31 31 31 31 31 31 30 30 30 30 30 29 29 29 29 28 29 28 28 28 27 27 27
31 31 32 32 33 34 33 33 33 33 33 33 33 32 32 32 33 33 32 32 32 31 31 31 31 32 32 32 31 31 30 30 30 30 29 29 29 29 29 29 28 28 27
31 32 32 33 34 34 34 33 33 33 34 34 33 33 33 33 33 33 33 32 32 32 32 32 31 32 32 33 33 32 32 31 31 30 30 30 29 29 30 30 29 29 28
32 32 33 33 34 34 34 34 33 33 34 34 34 34 34 34 34 33 33 33 32 33 32 32 32 32 32 32 32 32 33 32 32 31 30 30 30 30 30 30 30 29 29
32 33 33 33 33 34 34 34 33 34 34 33 33 33 33 33 34 34 33 33 32 33 33 33 33 32 32 32 32 32 33 32 32 32 31 30 29 30 30 30 30 30 30
32 32 32 33 33 33 33 33 33 33 33 32 33 33 33 32 32 32 32 33 33 33 32 33 33 33 32 32 32 32 32 32 32 32 32 31 31 31 31 31 32 31 31
32 32 32 32 33 33 33 32 33 33 33 32 32 32 32 33 33 32 32 32 33 33 33 33 32 32 32 33 32 32 32 32 32 32 32 31 32 32 32 32 32 32 32
31 32 32 33 33 32 33 33 34 34 34 33 32 32 32 32 33 33 33 33 33 33 33 33 32 32 31 32 32 32 32 32 32 32 32 32 33 33 32 32 32 33 33
32 32 32 32 32 32 32 32 33 33 33 33 33 32 33 33 34 34 35 34 34 33 33 33 32 31 31 31 31 31 32 32 33 33 33 33 34 34 33 33 33 33 33
32 32 32 32 31 31 31 31 32 32 33 33 33 33 33 33 33 33 34 34 34 33 33 32 33 32 31 31 32 32 32 32 33 33 33 33 34 34 34 34 34 33 33
30 31 30 30 29 29 29 30 29 30 31 32 32 32 33 33 33 33 33 32 32 32 32 31 32 31 31 31 33 34 34 33 33 34 34 34 34 34 34 34 34 33 33
29 29 28 28 28 28 28 28 28 28 29 30 31 32 32 31 31 31 30 30 30 31 30 30 30 31 31 32 33 33 34 34 34 34 34 34 34 34 34 34 34 33 33
27 27 27 27 27 27 27 27 28 28 28 29 30 30 31 31 31 31 31 30 30 30 31 31 31 31 32 32 33 33 34 34 34 34 34 35 35 34 34 34 34 34 33
25 25 25 25 25 26 26 26 27 27 28 28 29 29 29 30 30 30 31 31 30 31 31 32 32 32 32 32 33 33 33 33 33 34 35 35 35 34 34 34 34 34 34
24 24 24 24 25 25 25 26 26 26 27 28 28 28 28 28 29 30 31 31 31 31 31 32 32 32 32 32 33 33 33 33 33 33 34 34 34 34 35 35 34 33 33
24 24 24 24 24 24 25 25 26 26 27 27 27 27 27 28 28 29 30 31 31 31 31 32 32 32 33 32 33 33 33 33 33 33 33 33 33 34 34 34 34 34 34
25 25 24 24 24 25 25 25 26 26 27 27 27 28 28 28 28 29 29 31 31 30 31 31 32 32 33 33 33 33 33 33 33 33 32 32 33 33 34 35 35 35 35
24 24 24 24 25 25 25 26 26 27 27 27 27 27 27 27 28 28 29 30 30 29 29 29 30 30 31 32 32 31 31 32 31 32 31 31 32 32 33 33 34 35 35
Wind_Direction
271 271 271 270 271 269 269 272 272 270 271 273 274 274 273 274 275 274 273 275 276 277 278 279 280 281 282 283 284 284 284 283 284 284 286 285 284 285 287 289 291 291 290
269 269 270 269 270 270 269 269 269 269 270 272 273 273 273 273 274 273 273 273 276 277 278 279 279 280 281 281 281 282 282 281 283 285 286 286 284 284 286 288 289 288 288
268 268 269 269 268 269 269 268 268 269 269 272 274 273 273 274 275 275 275 274 275 277 277 277 279 279 279 280 279 279 279 280 281 284 285 285 284 285 285 285 284 284 285
269 268 268 269 269 269 269 269 268 269 270 271 273 272 272 274 275 275 275 276 275 276 277 276 277 278 279 278 277 278 278 277 278 280 283 282 280 282 282 282 281 281 282
270 269 269 268 269 269 269 269 269 270 270 271 272 272 271 273 274 275 275 275 275 274 273 274 275 276 279 277 276 276 276 276 276 276 279 281 280 280 280 280 279 278 280
272 271 269 268 268 270 270 270 269 270 271 271 272 272 272 273 274 274 275 275 275 273 273 274 274 274 276 277 275 274 274 276 276 275 278 279 280 280 279 279 279 278 278
274 273 270 269 270 271 271 270 270 270 271 271 272 271 271 272 274 275 274 274 274 274 273 274 274 273 273 274 274 274 275 275 276 276 277 278 279 278 278 278 280 280 279
275 274 272 270 270 271 271 271 271 270 270 271 271 271 271 272 273 275 274 274 274 275 274 273 273 274 273 273 272 272 273 274 276 277 277 277 277 278 277 277 279 280 279
276 276 274 271 270 271 272 271 271 270 269 270 270 271 272 272 273 273 273 274 275 275 276 274 273 274 274 274 274 273 273 273 274 275 275 276 277 275 275 277 279 279 278
277 276 275 273 272 272 272 272 271 270 269 270 270 271 272 273 273 273 272 273 274 274 275 274 273 272 273 273 274 273 273 273 273 273 274 276 277 274 275 276 277 277 277
278 276 276 275 274 273 274 273 272 270 270 270 268 269 271 272 273 272 271 272 273 274 274 274 273 273 273 272 272 273 272 272 272 273 273 274 275 273 273 274 275 276 276
278 277 276 276 276 275 276 275 272 271 270 268 267 268 270 271 272 271 271 271 272 273 273 273 273 273 272 271 271 272 272 271 271 271 273 274 274 273 272 274 275 275 275
279 278 278 276 277 276 275 274 272 272 271 268 268 269 269 270 271 271 271 272 272 274 273 273 272 272 272 271 271 272 271 271 271 272 272 273 274 274 273 273 274 274 274
281 279 278 277 276 276 277 276 274 273 271 268 268 268 269 270 269 270 271 272 273 274 275 274 273 272 271 271 271 270 270 270 270 271 271 272 273 274 274 273 273 274 274
282 281 279 277 276 276 275 275 274 273 271 269 269 269 269 270 269 270 270 272 272 273 273 274 274 272 270 270 270 269 269 269 269 270 269 270 271 273 274 274 274 274 274
282 280 278 277 277 277 276 276 275 273 272 270 270 270 270 270 271 272 272 272 273 273 274 274 273 271 271 270 269 270 270 269 269 269 269 270 271 271 272 273 273 273 274
284 283 280 278 276 277 277 276 274 272 270 270 270 270 270 269 271 273 274 274 274 274 274 274 274 272 270 269 269 271 272 269 269 268 268 270 271 271 272 272 273 274 275
285 284 284 282 279 278 277 277 275 272 271 270 269 269 270 271 271 272 273 272 273 273 275 275 273 272 270 270 270 270 270 270 270 269 269 269 269 270 271 271 272 274 274
285 285 285 284 283 281 279 278 277 275 274 272 271 270 271 272 272 272 272 271 271 272 272 272 273 273 273 273 272 271 270 270 271 270 271 271 270 271 271 271 272 272 272
286 285 285 284 283 282 281 281 280 279 278 276 274 274 273 273 273 272 272 271 271 272 273 272 273 273 274 273 273 274 274 273 272 271 271 272 272 272 272 272 272 273 273
288 286 285 284 283 283 282 281 280 279 279 279 278 277 277 276 275 273 272 272 271 271 273 273 272 272 274 273 274 275 275 275 273 271 271 272 271 272 272 271 271 271 272
291 289 288 287 285 285 284 283 282 282 282 282 281 280 279 278 276 275 274 273 272 271 272 272 272 273 273 274 275 274 274 274 273 272 271 271 271 271 272 271 270 269 270
293 293 291 288 287 286 285 285 285 284 284 285 284 283 281 279 277 275 274 273 272 271 271 271 271 272 272 273 274 274 274 274 274 273 272 272 271 270 270 269 268 269 268
294 294 294 292 290 289 287 287 286 286 287 287 286 284 283 281 279 277 275 274 274 274 273 272 271 272 272 272 273 274 273 273 273 273 273 273 271 270 269 267 266 266 268
295 294 294 293 292 290 289 288 288 288 289 288 287 284 282 281 281 279 278 277 276 276 275 273 273 273 273 272 273 273 273 272 272 272 272 273 272 271 270 268 267 267 268
296 296 294 294 294 293 292 291 291 291 291 290 289 288 286 284 283 281 280 278 277 277 277 276 275 275 276 277 276 276 276 275 274 273 273 273 273 272 271 270 269 268 269